When you browse on this site, cookies collect data to enhance your experience and personalize the content and advertising you see.
Visit our Privacy Policy to learn more. By continuing to use the site, you agree to this use of cookies and data.
  • In Spain
  • List of Countries
  • For 7 days
  • Water Temperature
  • Satellite Maps
  • Weather Map
  • Weather Widgets
  • user-avatar
    Login

    Hourly Weather Zobwe

    Today, 21 April, Sunday

    Time Temperature Precipitation Wind Pressure Humidity
    00:00 +22°C° 0 mm 3 mps 720 mmHg 83%
    01:00 +22°C° 0 mm 3 mps 720 mmHg 86%
    02:00 +21°C° 0 mm 2 mps 720 mmHg 88%
    03:00 +21°C° 0 mm 2 mps 720 mmHg 90%
    04:00 +21°C° 0 mm 2 mps 720 mmHg 91%
    05:00 +21°C° 0 mm 2 mps 720 mmHg 92%
    06:00 +22°C° 0 mm 3 mps 720 mmHg 87%
    07:00 +24°C° 0 mm 3 mps 720 mmHg 82%
    08:00 +25°C° 0 mm 3 mps 720 mmHg 76%
    09:00 +27°C° 0 mm 3 mps 720 mmHg 70%
    10:00 +28°C° 0 mm 3 mps 720 mmHg 64%
    11:00 +30°C° 0 mm 2 mps 720 mmHg 57%
    12:00 +31°C° 0 mm 2 mps 719 mmHg 55%
    13:00 +32°C° 0 mm 2 mps 719 mmHg 52%
    14:00 +32°C° 0 mm 2 mps 718 mmHg 49%
    15:00 +31°C° 0 mm 2 mps 718 mmHg 54%
    16:00 +30°C° 0 mm 2 mps 718 mmHg 58%
    17:00 +29°C° 0 mm 2 mps 718 mmHg 62%
    18:00 +28°C° 0 mm 2 mps 718 mmHg 64%
    19:00 +27°C° 0 mm 3 mps 719 mmHg 65%
    20:00 +26°C° 0 mm 3 mps 719 mmHg 67%
    21:00 +25°C° 0 mm 3 mps 719 mmHg 69%
    22:00 +24°C° 0 mm 3 mps 720 mmHg 71%
    23:00 +24°C° 0 mm 3 mps 720 mmHg 74%

    Tomorrow, 22 April, Monday

    Time Temperature Precipitation Wind Pressure Humidity
    00:00 +22°C° 0 mm 3 mps 720 mmHg 78%
    01:00 +22°C° 0 mm 3 mps 719 mmHg 81%
    02:00 +21°C° 0 mm 3 mps 719 mmHg 85%
    03:00 +21°C° 0 mm 3 mps 719 mmHg 87%
    04:00 +21°C° 0 mm 3 mps 719 mmHg 89%
    05:00 +20°C° 0 mm 3 mps 719 mmHg 91%
    06:00 +21°C° 0 mm 3 mps 720 mmHg 86%
    07:00 +22°C° 0 mm 3 mps 720 mmHg 81%
    08:00 +25°C° 0 mm 3 mps 721 mmHg 76%
    09:00 +26°C° 0 mm 3 mps 721 mmHg 68%
    10:00 +28°C° 0 mm 3 mps 720 mmHg 61%
    11:00 +30°C° 0 mm 3 mps 720 mmHg 54%
    12:00 +30°C° 0 mm 2 mps 720 mmHg 51%
    13:00 +31°C° 0 mm 2 mps 719 mmHg 48%
    14:00 +32°C° 0 mm 2 mps 718 mmHg 45%
    15:00 +31°C° 0 mm 2 mps 718 mmHg 49%
    16:00 +30°C° 0 mm 2 mps 718 mmHg 54%
    17:00 +29°C° 0 mm 2 mps 718 mmHg 58%
    18:00 +27°C° 0 mm 2 mps 718 mmHg 60%
    19:00 +26°C° 0 mm 3 mps 719 mmHg 62%
    20:00 +25°C° 0 mm 3 mps 720 mmHg 64%
    21:00 +24°C° 0 mm 3 mps 720 mmHg 68%
    22:00 +24°C° 0 mm 3 mps 720 mmHg 72%
    23:00 +22°C° 0 mm 3 mps 720 mmHg 75%

    Day after tomorrow, 23 April, Tuesday

    Time Temperature Precipitation Wind Pressure Humidity
    00:00 +22°C° 0 mm 3 mps 720 mmHg 79%
    01:00 +21°C° 0 mm 3 mps 720 mmHg 82%
    02:00 +21°C° 0 mm 3 mps 720 mmHg 85%
    03:00 +21°C° 0 mm 3 mps 720 mmHg 87%
    04:00 +20°C° 0 mm 3 mps 720 mmHg 89%
    05:00 +20°C° 0 mm 3 mps 720 mmHg 91%
    06:00 +21°C° 0 mm 3 mps 720 mmHg 86%
    07:00 +24°C° 0 mm 3 mps 721 mmHg 81%
    08:00 +25°C° 0 mm 3 mps 721 mmHg 76%
    09:00 +27°C° 0 mm 3 mps 721 mmHg 68%
    10:00 +29°C° 0 mm 2 mps 721 mmHg 60%
    11:00 +31°C° 0 mm 2 mps 721 mmHg 52%
    12:00 +31°C° 0 mm 2 mps 720 mmHg 50%
    13:00 +32°C° 0 mm 2 mps 720 mmHg 48%
    14:00 +34°C° 0 mm 2 mps 719 mmHg 46%
    15:00 +31°C° 0 mm 2 mps 719 mmHg 51%
    16:00 +30°C° 0 mm 2 mps 719 mmHg 56%
    17:00 +29°C° 0 mm 2 mps 719 mmHg 61%
    18:00 +28°C° 0 mm 2 mps 719 mmHg 64%
    19:00 +26°C° 0 mm 3 mps 720 mmHg 68%
    20:00 +25°C° 0 mm 3 mps 720 mmHg 72%
    21:00 +25°C° 0 mm 3 mps 721 mmHg 74%
    22:00 +24°C° 0 mm 3 mps 721 mmHg 76%
    23:00 +24°C° 0 mm 3 mps 721 mmHg 78%

    24 April, Wednesday

    Time Temperature Precipitation Wind Pressure Humidity
    00:00 +22°C° 0 mm 3 mps 721 mmHg 81%
    01:00 +22°C° 0 mm 3 mps 721 mmHg 83%
    02:00 +21°C° 0 mm 2 mps 720 mmHg 86%
    03:00 +21°C° 0 mm 2 mps 720 mmHg 87%
    04:00 +20°C° 0 mm 2 mps 720 mmHg 88%
    05:00 +20°C° 0 mm 2 mps 720 mmHg 90%
    06:00 +21°C° 0 mm 2 mps 721 mmHg 84%
    07:00 +24°C° 0 mm 3 mps 721 mmHg 78%
    08:00 +25°C° 0 mm 3 mps 722 mmHg 72%
    09:00 +27°C° 0 mm 2 mps 722 mmHg 64%
    10:00 +29°C° 0 mm 2 mps 721 mmHg 56%
    11:00 +31°C° 0 mm 2 mps 721 mmHg 48%
    12:00 +32°C° 0 mm 2 mps 720 mmHg 46%
    13:00 +32°C° 0 mm 2 mps 720 mmHg 44%
    14:00 +34°C° 0 mm 2 mps 719 mmHg 42%
    15:00 +32°C° 0 mm 1 mps 719 mmHg 47%
    16:00 +31°C° 0 mm 1 mps 719 mmHg 51%
    17:00 +29°C° 0 mm 1 mps 719 mmHg 56%
    18:00 +28°C° 0 mm 2 mps 719 mmHg 59%
    19:00 +27°C° 0 mm 2 mps 720 mmHg 63%
    20:00 +25°C° 0 mm 3 mps 721 mmHg 66%
    21:00 +25°C° 0 mm 3 mps 721 mmHg 69%
    22:00 +24°C° 0 mm 3 mps 721 mmHg 73%
    23:00 +24°C° 0 mm 3 mps 721 mmHg 77%

    25 April, Thursday

    Time Temperature Precipitation Wind Pressure Humidity
    00:00 +22°C° 0 mm 3 mps 721 mmHg 79%
    01:00 +22°C° 0 mm 3 mps 720 mmHg 81%
    02:00 +22°C° 0 mm 3 mps 720 mmHg 84%
    03:00 +21°C° 0 mm 3 mps 720 mmHg 86%
    04:00 +21°C° 0 mm 2 mps 720 mmHg 88%
    05:00 +21°C° 0 mm 2 mps 721 mmHg 90%
    06:00 +23°C° 0 mm 2 mps 721 mmHg 85%
    07:00 +24°C° 0 mm 2 mps 721 mmHg 80%
    08:00 +25°C° 0 mm 2 mps 722 mmHg 75%
    09:00 +27°C° 0 mm 2 mps 721 mmHg 67%
    10:00 +30°C° 0 mm 2 mps 721 mmHg 60%
    11:00 +32°C° 0 mm 2 mps 721 mmHg 52%
    12:00 +32°C° 0 mm 2 mps 720 mmHg 50%
    13:00 +34°C° 0 mm 2 mps 719 mmHg 48%
    14:00 +34°C° 0 mm 2 mps 718 mmHg 46%
    15:00 +32°C° 0 mm 2 mps 718 mmHg 51%
    16:00 +31°C° 0 mm 2 mps 718 mmHg 55%
    17:00 +30°C° 0 mm 2 mps 718 mmHg 60%
    18:00 +29°C° 0 mm 2 mps 719 mmHg 63%
    19:00 +28°C° 0 mm 2 mps 719 mmHg 67%
    20:00 +26°C° 0 mm 2 mps 720 mmHg 71%
    21:00 +26°C° 0 mm 3 mps 720 mmHg 73%
    22:00 +25°C° 0 mm 3 mps 720 mmHg 75%
    23:00 +25°C° 0 mm 3 mps 720 mmHg 77%

    26 April, Friday

    Time Temperature Precipitation Wind Pressure Humidity
    00:00 +24°C° 0 mm 3 mps 719 mmHg 80%
    01:00 +24°C° 0 mm 3 mps 719 mmHg 83%
    02:00 +24°C° 0 mm 3 mps 718 mmHg 86%
    03:00 +22°C° 0 mm 3 mps 718 mmHg 87%
    04:00 +22°C° 0 mm 3 mps 719 mmHg 89%
    05:00 +23°C° 0 mm 2 mps 719 mmHg 91%
    06:00 +24°C° 0 mm 2 mps 719 mmHg 86%
    07:00 +25°C° 0 mm 2 mps 720 mmHg 80%
    08:00 +26°C° 0 mm 2 mps 720 mmHg 75%
    09:00 +28°C° 0 mm 2 mps 720 mmHg 67%
    10:00 +30°C° 0 mm 2 mps 720 mmHg 60%
    11:00 +32°C° 0 mm 2 mps 719 mmHg 52%
    12:00 +32°C° 0 mm 2 mps 719 mmHg 50%
    13:00 +34°C° 0 mm 2 mps 718 mmHg 48%
    14:00 +35°C° 0 mm 2 mps 717 mmHg 46%
    15:00 +32°C° 0 mm 2 mps 717 mmHg 51%
    16:00 +31°C° 0 mm 2 mps 717 mmHg 55%
    17:00 +30°C° 0 mm 1 mps 717 mmHg 59%
    18:00 +29°C° 0 mm 2 mps 718 mmHg 62%
    19:00 +28°C° 0 mm 2 mps 718 mmHg 65%
    20:00 +27°C° 0 mm 2 mps 719 mmHg 68%
    21:00 +27°C° 0.2 mm 2 mps 719 mmHg 72%
    22:00 +26°C° 0.2 mm 2 mps 719 mmHg 76%
    23:00 +26°C° 0.2 mm 3 mps 719 mmHg 80%
    Show more